Probability
0 0 0 0 0 0 0 0 0 0 0 0 0 0 0 0 0 0 0 0 0 0 0 0 0 0 0 0 0 0 0 0 0 0 0 0 0 0
0 0 0 0 0 0 0 0 0 0 0 0 0 0 0 0 0 0 0 0 0 0 0 0 0 0 0 0 0 0 0 0 0 0 0 0 0 0
0 0 0 0 0 0 0 0 0 0 0 0 0 0 0 0 0 0 0 0 0 0 0 0 0 0 0 0 0 0 0 0 0 0 0 0 0 0
0 0 0 0 0 0 0 0 0 0 0 0 0 0 0 0 0 0 0 0 0 0 0 0 0 0 0 0 0 0 0 0 0 0 0 0 0 0
0 0 0 0 0 0 0 0 0 0 0 0 0 0 0 0 0 0 0 0 0 0 0 0 0 0 0 0 0 0 0 0 0 0 0 0 0 0
0 0 0 0 0 0 0 0 0 0 0 0 0 0 0 0 0 0 0 0 0 0 0 0 0 0 0 0 0 0 0 0 0 0 0 0 0 0
0 0 0 0 0 0 0 0 0 0 0 0 0 0 0 0 0 0 0 0 0 0 0 0 0 0 0 0 0 0 0 0 0 0 0 0 0 0
0 0 0 0 0 0 0 0 0 0 0 0 0 0 0 0 0 0 0 0 0 0 0 0 0 0 0 0 0 0 0 0 0 0 0 0 0 0
0 0 0 0 0 0 0 0 0 0 0 0 0 0 0 0 0 0 0 0 0 0 0 0 0 0 0 0 0 0 0 0 0 0 0 0 0 0
0 0 0 0 0 0 0 0 0 0 0 0 0 0 0 0 0 0 0 0 0 0 0 0 0 0 0 0 0 0 0 0 0 0 0 0 0 0
0 0 0 0 0 0 0 0 0 0 0 0 0 0 0 0 0 0 0 0 0 0 0 0 0 0 0 0 0 0 0 0 0 0 0 0 0 0
0 0 0 0 0 0 0 0 0 0 0 0 0 0 0 0 0 0 0 0 0 0 0 0 0 0 0 0 0 0 0 0 0 0 0 0 0 0
0 0 0 0 0 0 0 0 0 0 0 0 0 0 0 0 0 0 0 0 0 0 0 0 0 0 0 0 0 0 0 0 0 0 0 0 0 0
0 0 0 0 0 0 0 0 0 0 0 0 0 0 0 0 0 0 0 0 0 0 0 0 0 0 0 0 0 0 0 0 0 0 0 0 0 0
0 0 0 0 0 0 0 0 0 0 0 0 0 0 0 0 0 0 0 0 0 0 0 0 0 0 0 0 0 0 0 0 0 0 0 0 0 0
0 0 0 0 0 0 0 0 0 0 0 0 0 0 0 0 0 0 0 0 0 0 0 0 0 0 0 0 0 0 0 0 0 0 0 0 0 0
0 0 0 0 0 0 0 0 0 0 0 0 0 0 0 0 0 0 0 0 0 0 0 0 0 0 0 0 0 0 0 0 0 0 0 0 0 0
0 0 0 0 0 0 0 0 0 0 0 0 0 0 0 0 0 0 0 0 0 0 0 0 0 0 0 0 0 0 0 0 0 0 0 0 0 0
0 0 0 0 0 0 0 0 0 0 0 0 0 0 0 0 0 0 0 0 0 0 0 0 0 0 0 0 0 0 0 0 0 0 0 0 0 0
0 0 0 0 0 0 0 0 0 0 0 0 0 0 0 0 0 0 0 0 0 0 0 0 0 0 0 0 0 0 0 0 0 0 0 0 0 0
0 0 0 0 0 0 0 0 0 0 0 0 0 0 0 0 0 0 0 0 0 0 0 0 0 0 0 0 0 0 0 0 0 0 0 0 0 0
0 0 0 0 0 0 0 0 0 0 0 0 0 0 0 0 0 0 0 0 0 0 0 0 0 0 0 0 0 0 0 0 0 0 0 0 0 0
0 0 0 0 0 0 0 0 0 0 0 0 0 0 0 0 0 0 0 0 0 0 0 0 0 0 0 0 0 0 0 0 0 0 0 0 0 0
Wind_Speed
2 3 2 2 1 1 2 2 2 2 3 2 2 2 2 2 4 3 4 8 9 8 9 9 8 8 9 10 10 11 12 13 14 15 16 17 17 17
1 2 2 2 1 1 1 1 1 2 2 2 2 2 3 3 5 4 4 9 9 9 9 9 9 8 9 10 10 11 12 13 14 15 16 16 17 17
1 2 1 1 2 1 1 1 1 1 2 2 2 2 2 3 4 4 4 4 4 8 9 9 9 9 9 10 10 10 11 13 14 14 15 16 17 17
1 2 1 1 1 1 1 1 1 1 2 2 2 2 3 3 4 4 4 4 4 7 9 9 9 10 9 9 10 10 11 12 13 14 15 16 17 17
2 2 1 2 1 0 1 1 1 0 1 1 2 2 2 2 4 4 4 3 4 6 8 9 9 10 9 9 10 10 11 12 13 14 15 15 16 16
1 2 1 1 1 1 1 1 1 1 0 1 2 1 2 2 2 3 4 4 4 4 6 7 9 10 10 10 11 11 12 12 13 13 14 15 15 15
2 2 1 1 1 0 1 1 1 1 1 1 1 1 2 2 3 3 4 4 4 2 4 4 5 4 5 8 9 11 12 12 12 13 14 14 14 14
2 2 2 2 2 3 2 1 1 1 1 1 1 2 2 2 3 3 3 4 4 3 4 5 3 4 4 4 9 11 12 12 12 13 13 14 14 14
2 2 1 2 2 2 3 3 3 3 2 1 1 2 2 3 3 3 2 3 3 3 3 4 3 4 4 6 11 11 11 12 13 13 14 14 14 14
2 1 1 1 1 1 2 2 2 2 3 2 1 2 2 2 2 2 2 3 3 2 2 3 4 4 6 5 9 11 11 12 13 14 14 14 14 14
1 1 1 1 2 3 2 2 2 2 4 4 4 3 4 5 3 2 2 3 3 2 2 2 3 4 5 4 5 10 11 13 14 14 15 15 14 13
1 1 1 2 2 3 2 1 1 2 2 3 4 5 4 5 5 2 1 2 2 2 2 3 3 4 4 4 4 5 6 10 13 14 14 14 15 8
1 1 1 3 3 3 2 1 1 1 1 2 2 3 3 3 3 2 1 1 1 2 2 2 2 2 2 5 5 4 4 5 6 8 11 14 14 11
1 0 1 3 3 3 3 3 4 3 2 2 2 2 2 3 3 3 2 1 1 2 3 3 2 3 3 4 5 5 5 5 5 6 6 10 11 13
1 1 2 3 3 3 4 4 3 2 2 2 2 2 2 2 2 2 2 2 2 2 3 3 2 3 2 3 4 5 5 5 5 5 6 6 6 7
1 2 4 4 3 4 4 3 2 1 1 1 1 2 2 2 2 2 2 3 3 3 3 3 3 2 2 3 3 5 4 5 6 6 6 5 5 5
2 2 2 2 2 2 2 2 2 2 2 1 1 1 2 2 3 3 2 3 3 3 4 4 4 3 2 3 3 4 4 4 5 6 6 6 6 5
2 1 1 1 1 1 1 1 1 2 1 1 1 1 2 2 3 3 2 2 3 3 3 4 4 4 3 2 2 3 4 4 5 5 5 5 6 6
1 1 0 0 0 0 0 1 1 1 1 1 1 1 2 2 2 2 3 3 3 3 3 3 3 3 4 5 4 3 3 5 6 5 4 4 5 6
0 0 0 0 0 0 0 0 1 1 1 1 1 1 1 1 2 2 2 3 3 3 3 3 2 3 3 3 4 5 6 5 4 5 5 4 4 6
0 0 0 1 0 0 0 0 0 1 1 1 1 2 1 1 1 2 2 4 3 3 4 4 4 6 3 2 3 4 4 5 5 4 5 5 4 4
0 0 0 0 0 0 0 0 0 1 1 1 1 1 1 1 1 2 2 2 2 3 3 3 4 3 2 2 3 4 5 6 6 7 6 4 2 3
1 0 0 0 0 0 0 0 0 1 1 1 1 2 2 1 1 2 2 2 2 2 3 3 3 3 3 3 3 3 5 6 5 5 5 7 7 6
Wind_Direction
192 190 181 184 176 175 180 190 197 252 277 277 286 301 316 317 326 328 313 321 325 324 323 322 321 322 322 319 320 321 321 323 323 322 320 319 319 320
167 166 169 169 153 160 177 192 208 207 253 270 277 304 310 324 331 326 314 328 325 324 324 324 326 321 321 321 321 321 322 323 323 322 322 323 322 322
138 123 134 153 156 175 166 159 182 184 243 292 302 316 314 318 328 323 313 312 311 323 325 327 327 324 324 324 322 322 324 325 323 324 324 323 323 323
131 115 111 110 160 176 153 145 160 172 200 273 309 313 301 306 318 317 320 322 313 320 327 329 330 330 327 327 327 327 329 328 327 326 325 324 323 323
135 138 154 119 104 174 150 154 153 124 180 236 295 298 308 323 327 318 317 316 321 324 329 332 330 329 328 330 330 333 332 332 330 328 327 327 326 325
125 141 146 147 174 157 106 138 141 131 166 236 286 310 321 327 324 327 332 332 327 329 336 333 333 333 330 334 336 337 336 335 333 332 332 331 330 328
103 97 109 105 109 110 116 142 148 176 231 275 298 319 324 335 327 323 318 322 321 331 330 323 325 320 322 328 334 336 336 338 339 338 337 335 334 333
105 83 83 71 75 63 62 40 10 241 234 264 291 295 298 303 304 310 320 333 323 337 335 318 322 314 316 315 329 337 341 343 343 342 340 338 337 336
109 101 68 61 45 65 54 31 8 352 328 251 271 274 277 283 295 306 316 314 295 311 328 308 318 312 314 320 332 340 345 348 346 345 344 343 342 340
100 108 103 76 60 65 60 34 15 4 351 343 269 273 282 290 290 297 300 309 296 309 331 301 314 311 316 316 334 345 349 349 349 348 348 348 345 342
86 90 103 121 88 56 53 44 26 8 16 19 10 6 0 1 4 12 351 343 327 327 354 320 310 314 312 314 332 345 347 348 348 349 350 350 348 344
85 82 76 66 63 57 67 70 28 356 11 10 12 11 9 10 13 10 332 335 328 318 339 335 319 334 323 313 322 332 339 344 346 346 349 352 353 351
107 78 60 53 46 38 47 71 33 23 23 12 8 4 3 6 356 352 348 317 311 298 315 332 318 325 305 307 314 323 334 338 340 339 344 350 353 355
121 93 82 55 43 31 42 56 48 40 31 19 16 7 359 349 340 342 343 340 304 276 293 305 294 310 314 312 312 320 329 334 338 337 342 347 350 351
70 63 55 48 38 36 50 50 43 36 30 23 3 344 330 322 324 335 341 341 337 322 316 309 301 303 299 299 306 315 323 327 337 339 343 345 345 347
65 76 56 47 49 53 45 33 28 21 26 3 334 323 325 341 349 346 344 346 347 342 342 339 325 314 313 297 296 307 318 320 330 333 333 336 343 347
103 81 56 41 46 43 36 32 27 18 10 356 342 339 345 354 352 349 352 354 354 339 341 342 336 323 297 299 306 310 317 316 317 329 335 340 344 348
100 109 85 49 42 31 25 14 11 4 353 348 345 343 350 355 351 350 353 356 348 336 332 331 336 341 343 330 297 309 326 324 324 330 332 335 338 343
97 138 164 153 87 1 351 342 339 338 336 341 344 339 346 351 351 350 350 349 344 335 331 332 345 354 350 338 329 333 331 328 330 332 333 330 325 327
86 174 202 180 178 237 278 316 333 341 348 346 345 341 342 343 349 349 344 341 334 331 336 341 346 342 323 308 308 316 325 322 325 326 326 319 310 310
30 279 224 191 193 222 259 288 301 326 341 343 342 338 336 343 342 337 334 339 340 336 338 334 319 324 312 308 315 321 324 331 331 322 322 324 331 345
226 237 254 209 181 197 204 202 305 323 339 345 333 330 328 329 326 327 330 331 329 328 326 323 328 339 354 349 331 322 325 330 338 341 339 344 343 346
214 197 196 230 208 186 179 197 252 292 320 326 320 323 326 325 315 311 314 317 323 333 337 336 340 346 348 340 331 327 330 335 340 350 357 357 356 345